STARLINK-33571, 63386

Orbit data source: Space-Track

STARLINK-33571, 63386 is a payload satellite owned by SpaceX/Seattle (US) in LEO that was launched on Wed, 26 Mar 2025 UTC via an FALCON 9 launch vehicle from the Air Force Western Test Range (AFWTR). Payload-class satellites include a variety of spacecraft equipped with specific instruments for various scientific and technological missions. These include communications satellites like Starlink; space stations such as the ISS; scientific satellites like the Hubble; Earth observation satellites from companies like Planet Labs, Umbra, and HawkEye 360; GPS; miniature CubeSats for education and research; and military/defense satellites.

Loading next visibility...
Identifier
63386, 2025-063Z
Orbit
LEO
Country
Flag of USUS
Related business
Manufacturer
SpaceX/Seattle
Mission
Operational Commercial Communications
Bus & Motor
STARLINK V2MO, Unknown motor
Mass
575 kg wet, ~530 kg dry
Launch date (UTC)
2025-03-26 (1 year ago)
Launch vehicle
FALCON 9
Launch site
Air Force Western Test Range (AFWTR)
Object type
Payload
Rocket body
Debris
Shape & HBR
Box + 2 Pan, 17.7 m
Radar Cross Section
36.964 m², Large (>1 m²)

Expand to show TLE details & history
Last TLE update: 1 day ago

TLE from 1 day ago
0 STARLINK-33571
1 63386U 25063Z   26170.64646157  .00019449  00000-0  58516-3 0  9992
2 63386  53.1605 307.8031 0000999 111.3901 248.7208 15.34405764 70190
Epoch: 2026-06-19T15:30Z
TLE epoch observation values (Epoch: 2026-06-19T15:30:54.279Z)
Latitude
-0.00005°
Longitude
167.20445°
Altitude
463.836 km
Speed
7.636 km/s
True Right ascension
20h 31m 12s
True Declination
0° 00' 00"
Sunlit
Object was in full shadow at epoch
Visualization orbit readout
Latitude
Unknown
Longitude
Unknown
Altitude
Unknown
Speed
Unknown
Apparent Right ascension
Unknown
Apparent Declination
Unknown
Sunlit
N/A
Visualization observer readout
Local Sidereal Time
07:17:17
Azimuth
Unknown
Elevation
Unknown
Doppler factor
Unknown
Orbital elements
Apogee altitude
463.626 km
Perigee altitude
462.259 km
Semi-major axis
6,841.08 km
Eccentricity
0.0001
Inclination
53.1605°
RAAN
307.8031°
Arg. of periapsis
111.3901°
True anomaly
248.71013°
Mean anomaly
248.7208°
Eccentric anomaly
248.71547°
Mean motion
3.8358 °/min
Orbital period
93.85 mins
BSTAR
0.00058516
Loading maneuver chart data...
Computing Atmospheric mass density...
Loading historical data...
Loading historical data...
Loading historical data...
Loading historical data...
Loading historical data...
Loading historical data...
Loading historical data...

Documentation

Showing up to 5 results
|